IRIDIUM 52 [-]

Last updated on Nov. 6, 2018, 12:08 a.m. UTC

1 25169U 98010A   18309.77169380  .30688811 -17469-5  40668-3 0  9998
2 25169  86.5281 137.3081 0051043 106.6669 254.0636 16.43225570 84626

Satellite is not in orbit.